| time (UTC) | temp F | wind direction | speed MPH | gust MPH | rain 1hr in | rain 24hr in | rain mn in | humidity % | barometer mb |
| 20260902055616 | 68 | 114 | 0.0 | 1.0 | 0.00 | 0.00 | 0.00 | 96 | 1017.6 |
| 20260902054616 | 68 | 0.0 | 0.0 | 0.00 | 0.00 | 0.00 | 95 | 1017.6 | |
| 20260902053636 | 69 | 0.0 | 0.0 | 0.00 | 0.00 | 0.00 | 94 | 1017.7 | |
| 20260902052616 | 69 | 0.0 | 0.0 | 0.00 | 0.00 | 0.00 | 94 | 1017.6 | |
| 20260902051616 | 69 | 0.0 | 0.0 | 0.00 | 0.00 | 0.00 | 94 | 1017.6 | |
| 20260902050616 | 69 | 0.0 | 0.0 | 0.00 | 0.00 | 0.00 | 93 | 1017.4 | |
| 20260902045617 | 70 | 0.0 | 0.0 | 0.00 | 0.00 | 0.00 | 93 | 1017.3 | |
| 20260902044616 | 70 | 351 | 0.0 | 2.0 | 0.00 | 0.00 | 0.00 | 92 | 1017.3 |
| 20260902043616 | 70 | 0.0 | 0.0 | 0.00 | 0.00 | 0.00 | 92 | 1017.3 | |
| 20260902042656 | 70 | 0.0 | 0.0 | 0.00 | 0.00 | 0.00 | 92 | 1017.1 | |
| 20260902041616 | 71 | 0.0 | 1.0 | 0.00 | 0.00 | 0.00 | 91 | 1017.1 | |
| 20260902040616 | 71 | 0.0 | 1.0 | 0.00 | 0.00 | 0.00 | 91 | 1017.1 | |
| 20260902035636 | 71 | 213 | 2.0 | 4.0 | 0.00 | 0.00 | 0.00 | 91 | 1017.0 |
| 20260902034636 | 70 | 206 | 1.0 | 3.0 | 0.00 | 0.00 | 0.00 | 91 | 1017.0 |
| 20260902033636 | 70 | 204 | 4.0 | 6.0 | 0.00 | 0.00 | 0.00 | 91 | 1016.9 |
| 20260902032616 | 71 | 219 | 3.0 | 6.0 | 0.00 | 0.00 | 0.00 | 91 | 1017.0 |
| 20260902031616 | 71 | 224 | 4.0 | 8.0 | 0.00 | 0.00 | 0.00 | 91 | 1016.9 |
| 20260902030636 | 72 | 223 | 3.0 | 6.0 | 0.00 | 0.00 | 0.00 | 91 | 1016.7 |
| 20260902025616 | 72 | 223 | 4.0 | 5.0 | 0.00 | 0.00 | 0.00 | 92 | 1016.8 |
| 20260902024616 | 72 | 204 | 3.0 | 5.0 | 0.00 | 0.00 | 0.00 | 91 | 1016.7 |
| 20260902023636 | 72 | 212 | 4.0 | 5.0 | 0.00 | 0.00 | 0.00 | 90 | 1016.6 |
| 20260902022636 | 73 | 219 | 2.0 | 6.0 | 0.00 | 0.00 | 0.00 | 87 | 1016.8 |
| 20260902021616 | 73 | 242 | 4.0 | 9.0 | 0.00 | 0.00 | 0.00 | 89 | 1016.6 |
| 20260902020656 | 71 | 208 | 3.0 | 5.0 | 0.00 | 0.00 | 0.00 | 91 | 1016.6 |
| 20260902015636 | 71 | 192 | 3.0 | 5.0 | 0.00 | 0.00 | 0.00 | 91 | 1016.7 |
| 20260902014636 | 71 | 210 | 4.0 | 5.0 | 0.00 | 0.00 | 0.00 | 90 | 1016.8 |
| 20260902013616 | 73 | 217 | 4.0 | 8.0 | 0.00 | 0.00 | 0.00 | 89 | 1016.8 |
| 20260902012616 | 73 | 229 | 3.0 | 7.0 | 0.00 | 0.00 | 0.00 | 89 | 1016.8 |
| 20260902011636 | 73 | 269 | 2.0 | 3.0 | 0.00 | 0.00 | 0.00 | 91 | 1016.8 |
| 20260902010616 | 72 | 198 | 3.0 | 5.0 | 0.00 | 0.00 | 0.00 | 90 | 1016.8 |
| 20260902005616 | 72 | 211 | 2.0 | 6.0 | 0.00 | 0.00 | 0.00 | 91 | 1016.9 |
| 20260902004616 | 71 | 211 | 4.0 | 9.0 | 0.00 | 0.00 | 0.00 | 91 | 1016.9 |
| 20260902003616 | 72 | 226 | 2.0 | 4.0 | 0.00 | 0.00 | 0.00 | 91 | 1016.9 |
| 20260902002736 | 73 | 217 | 3.0 | 9.0 | 0.00 | 0.00 | 0.00 | 89 | 1017.0 |
| 20260902001616 | 74 | 208 | 5.0 | 10.0 | 0.00 | 0.00 | 0.00 | 87 | 1017.0 |
| 20260902000616 | 74 | 232 | 5.0 | 7.0 | 0.00 | 0.00 | 0.00 | 87 | 1017.0 |
| 20260901235616 | 74 | 216 | 6.0 | 10.0 | 0.00 | 0.00 | 0.00 | 86 | 1016.9 |
| 20260901234616 | 76 | 271 | 3.0 | 5.0 | 0.00 | 0.00 | 0.00 | 86 | 1017.0 |
| 20260901233616 | 77 | 235 | 5.0 | 12.0 | 0.00 | 0.00 | 0.00 | 81 | 1016.9 |
| 20260901232617 | 78 | 240 | 3.0 | 8.0 | 0.00 | 0.00 | 0.00 | 82 | 1017.1 |
| 20260901231616 | 77 | 235 | 4.0 | 8.0 | 0.00 | 0.00 | 0.00 | 82 | 1017.2 |
| 20260901230616 | 77 | 231 | 5.0 | 9.0 | 0.00 | 0.00 | 0.00 | 80 | 1017.3 |
| 20260901225616 | 77 | 228 | 3.0 | 6.0 | 0.00 | 0.00 | 0.00 | 83 | 1017.3 |
| 20260901224616 | 77 | 234 | 2.0 | 5.0 | 0.00 | 0.00 | 0.00 | 85 | 1017.3 |
| 20260901223616 | 76 | 236 | 2.0 | 7.0 | 0.00 | 0.00 | 0.00 | 82 | 1017.4 |
| 20260901222616 | 77 | 255 | 2.0 | 4.0 | 0.00 | 0.00 | 0.00 | 85 | 1017.4 |
| 20260901221616 | 76 | 270 | 1.0 | 6.0 | 0.00 | 0.00 | 0.00 | 87 | 1017.4 |
| 20260901220616 | 75 | 246 | 2.0 | 6.0 | 0.00 | 0.00 | 0.00 | 86 | 1017.4 |
| 20260901215616 | 76 | 227 | 2.0 | 5.0 | 0.00 | 0.00 | 0.00 | 86 | 1017.6 |
| 20260901214636 | 76 | 228 | 4.0 | 7.0 | 0.00 | 0.00 | 0.00 | 84 | 1017.7 |
| 20260901213636 | 74 | 216 | 2.0 | 5.0 | 0.00 | 0.00 | 0.00 | 85 | 1017.8 |
| 20260901212616 | 74 | 235 | 3.0 | 6.0 | 0.00 | 0.00 | 0.00 | 84 | 1018.0 |
| 20260901211616 | 72 | 208 | 3.0 | 6.0 | 0.00 | 0.00 | 0.00 | 87 | 1018.2 |
| 20260901210616 | 73 | 215 | 2.0 | 7.0 | 0.00 | 0.00 | 0.00 | 85 | 1018.2 |
| 20260901205616 | 74 | 206 | 3.0 | 5.0 | 0.00 | 0.00 | 0.00 | 85 | 1018.3 |
| 20260901204616 | 75 | 230 | 1.0 | 5.0 | 0.00 | 0.00 | 0.00 | 85 | 1018.3 |
| 20260901203616 | 75 | 234 | 1.0 | 5.0 | 0.00 | 0.00 | 0.00 | 83 | 1018.2 |
| 20260901202616 | 75 | 184 | 1.0 | 4.0 | 0.00 | 0.00 | 0.00 | 84 | 1018.4 |
| 20260901201636 | 74 | 291 | 1.0 | 2.0 | 0.00 | 0.00 | 0.00 | 83 | 1018.6 |
| 20260901200636 | 74 | 328 | 2.0 | 4.0 | 0.00 | 0.00 | 0.00 | 85 | 1018.7 |
| 20260901195616 | 73 | 280 | 1.0 | 1.0 | 0.00 | 0.00 | 0.00 | 86 | 1018.6 |
| 20260901194636 | 73 | 230 | 3.0 | 6.0 | 0.00 | 0.00 | 0.00 | 82 | 1018.8 |
| 20260901193616 | 74 | 300 | 1.0 | 2.0 | 0.00 | 0.00 | 0.00 | 85 | 1019.0 |
| 20260901192616 | 74 | 284 | 2.0 | 3.0 | 0.00 | 0.00 | 0.00 | 81 | 1019.0 |
| 20260901191616 | 73 | 231 | 1.0 | 2.0 | 0.00 | 0.00 | 0.00 | 85 | 1018.8 |
| 20260901190616 | 72 | 129 | 1.0 | 2.0 | 0.00 | 0.00 | 0.00 | 84 | 1018.6 |
| 20260901185636 | 72 | 237 | 1.0 | 3.0 | 0.00 | 0.00 | 0.00 | 87 | 1018.8 |
| 20260901184616 | 71 | 312 | 0.0 | 1.0 | 0.00 | 0.00 | 0.00 | 84 | 1018.7 |
| 20260901183636 | 72 | 345 | 1.0 | 2.0 | 0.00 | 0.00 | 0.00 | 85 | 1018.7 |
| 20260901182616 | 70 | 0.0 | 0.0 | 0.00 | 0.00 | 0.00 | 80 | 1018.6 | |
| 20260901181616 | 68 | 177 | 1.0 | 2.0 | 0.00 | 0.00 | 0.00 | 81 | 1018.7 |
| 20260901180616 | 67 | 232 | 0.0 | 1.0 | 0.00 | 0.00 | 0.00 | 85 | 1018.6 |
| 20260901175616 | 66 | 99 | 0.0 | 1.0 | 0.00 | 0.00 | 0.00 | 83 | 1018.5 |
| 20260901174616 | 65 | 45 | 0.0 | 1.0 | 0.00 | 0.00 | 0.00 | 86 | 1018.6 |
| 20260901173616 | 65 | 123 | 0.0 | 2.0 | 0.00 | 0.00 | 0.00 | 85 | 1018.6 |
| 20260901172616 | 64 | 33 | 2.0 | 5.0 | 0.00 | 0.00 | 0.00 | 86 | 1018.4 |
| 20260901171616 | 63 | 100 | 2.0 | 3.0 | 0.00 | 0.00 | 0.00 | 87 | 1018.1 |
| 20260901170616 | 63 | 133 | 2.0 | 3.0 | 0.00 | 0.00 | 0.00 | 90 | 1018.2 |
| 20260901165616 | 61 | 8 | 0.0 | 2.0 | 0.00 | 0.00 | 0.00 | 89 | 1018.0 |
| 20260901164616 | 61 | 125 | 1.0 | 2.0 | 0.00 | 0.00 | 0.00 | 88 | 1018.2 |
| 20260901163616 | 62 | 109 | 3.0 | 3.0 | 0.00 | 0.00 | 0.00 | 85 | 1018.1 |
| 20260901162616 | 62 | 100 | 2.0 | 3.0 | 0.00 | 0.00 | 0.00 | 86 | 1017.9 |
| 20260901161616 | 62 | 87 | 1.0 | 2.0 | 0.00 | 0.00 | 0.00 | 86 | 1018.0 |
| 20260901160616 | 61 | 41 | 2.0 | 4.0 | 0.00 | 0.00 | 0.00 | 86 | 1017.8 |
| 20260901155616 | 61 | 135 | 3.0 | 4.0 | 0.00 | 0.00 | 0.00 | 86 | 1017.7 |
| 20260901154616 | 61 | 112 | 1.0 | 3.0 | 0.00 | 0.00 | 0.00 | 88 | 1017.7 |
| 20260901153616 | 61 | 104 | 1.0 | 3.0 | 0.00 | 0.00 | 0.00 | 89 | 1017.7 |
| 20260901152616 | 62 | 123 | 3.0 | 4.0 | 0.00 | 0.00 | 0.00 | 89 | 1017.6 |
| 20260901151616 | 62 | 96 | 2.0 | 3.0 | 0.00 | 0.00 | 0.00 | 90 | 1017.4 |
| 20260901150616 | 61 | 50 | 1.0 | 2.0 | 0.00 | 0.00 | 0.00 | 88 | 1017.4 |
| 20260901145616 | 61 | 111 | 2.0 | 2.0 | 0.00 | 0.00 | 0.00 | 88 | 1017.1 |
| 20260901144616 | 61 | 111 | 1.0 | 2.0 | 0.00 | 0.00 | 0.00 | 89 | 1017.0 |
| 20260901143616 | 61 | 110 | 2.0 | 3.0 | 0.00 | 0.00 | 0.00 | 88 | 1017.1 |
| 20260901142616 | 61 | 106 | 2.0 | 3.0 | 0.00 | 0.00 | 0.00 | 88 | 1016.9 |
| 20260901141616 | 61 | 104 | 2.0 | 2.0 | 0.00 | 0.00 | 0.00 | 89 | 1017.0 |
| 20260901140616 | 61 | 107 | 2.0 | 3.0 | 0.00 | 0.00 | 0.00 | 90 | 1016.9 |
| 20260901135616 | 60 | 107 | 2.0 | 2.0 | 0.00 | 0.00 | 0.00 | 90 | 1017.0 |
| 20260901134616 | 60 | 122 | 0.0 | 2.0 | 0.00 | 0.00 | 0.00 | 89 | 1017.0 |
| 20260901133616 | 61 | 118 | 2.0 | 2.0 | 0.00 | 0.00 | 0.00 | 88 | 1016.9 |
| 20260901132616 | 61 | 111 | 1.0 | 3.0 | 0.00 | 0.00 | 0.00 | 88 | 1017.1 |
| 20260901131616 | 61 | 42 | 1.0 | 2.0 | 0.00 | 0.00 | 0.00 | 88 | 1017.3 |
| 20260901130616 | 61 | 117 | 1.0 | 2.0 | 0.00 | 0.00 | 0.00 | 89 | 1017.2 |
| 20260901125616 | 61 | 108 | 2.0 | 3.0 | 0.00 | 0.00 | 0.00 | 90 | 1017.3 |
| 20260901124616 | 61 | 111 | 2.0 | 3.0 | 0.00 | 0.00 | 0.00 | 90 | 1017.6 |
| 20260901123616 | 61 | 104 | 1.0 | 3.0 | 0.00 | 0.00 | 0.00 | 90 | 1017.5 |
| 20260901122616 | 61 | 101 | 2.0 | 3.0 | 0.00 | 0.00 | 0.00 | 89 | 1017.7 |
| 20260901121616 | 61 | 124 | 2.0 | 2.0 | 0.00 | 0.00 | 0.00 | 89 | 1017.7 |
| 20260901120616 | 61 | 85 | 1.0 | 2.0 | 0.00 | 0.00 | 0.00 | 89 | 1017.9 |
| 20260901115616 | 62 | 98 | 2.0 | 2.0 | 0.00 | 0.00 | 0.00 | 89 | 1018.1 |
| 20260901114616 | 62 | 110 | 2.0 | 3.0 | 0.00 | 0.00 | 0.00 | 89 | 1018.0 |
| 20260901113616 | 62 | 115 | 2.0 | 3.0 | 0.00 | 0.00 | 0.00 | 88 | 1018.2 |
| 20260901112616 | 61 | 95 | 2.0 | 4.0 | 0.00 | 0.00 | 0.00 | 88 | 1018.1 |
| 20260901111616 | 61 | 112 | 1.0 | 2.0 | 0.00 | 0.00 | 0.00 | 88 | 1018.3 |
| 20260901110616 | 62 | 107 | 2.0 | 3.0 | 0.00 | 0.00 | 0.00 | 88 | 1018.5 |
| 20260901105636 | 62 | 102 | 2.0 | 3.0 | 0.00 | 0.00 | 0.00 | 90 | 1018.5 |
| 20260901104616 | 62 | 103 | 1.0 | 2.0 | 0.00 | 0.00 | 0.00 | 91 | 1018.5 |
| 20260901103616 | 62 | 117 | 0.0 | 2.0 | 0.00 | 0.00 | 0.00 | 90 | 1018.6 |
| 20260901102616 | 62 | 109 | 1.0 | 2.0 | 0.00 | 0.00 | 0.00 | 90 | 1018.6 |
| 20260901101616 | 62 | 120 | 1.0 | 2.0 | 0.00 | 0.00 | 0.00 | 90 | 1018.7 |
| 20260901100656 | 62 | 101 | 2.0 | 3.0 | 0.00 | 0.00 | 0.00 | 89 | 1018.8 |
| 20260901095636 | 62 | 110 | 2.0 | 2.0 | 0.00 | 0.00 | 0.00 | 89 | 1018.9 |
| 20260901094636 | 63 | 107 | 1.0 | 2.0 | 0.00 | 0.00 | 0.00 | 90 | 1018.9 |
| 20260901093636 | 64 | 127 | 2.0 | 2.0 | 0.00 | 0.00 | 0.00 | 91 | 1018.9 |
| 20260901092636 | 64 | 42 | 3.0 | 4.0 | 0.00 | 0.00 | 0.00 | 91 | 1019.1 |
| 20260901091616 | 64 | 111 | 1.0 | 2.0 | 0.00 | 0.00 | 0.00 | 91 | 1019.1 |
| 20260901090616 | 64 | 139 | 2.0 | 4.0 | 0.00 | 0.00 | 0.00 | 91 | 1019.1 |
| 20260901085616 | 64 | 125 | 1.0 | 2.0 | 0.00 | 0.00 | 0.00 | 92 | 1019.3 |
| 20260901084615 | 65 | 112 | 1.0 | 1.0 | 0.00 | 0.00 | 0.00 | 88 | 1019.2 |
| 20260901083616 | 65 | 114 | 1.0 | 2.0 | 0.00 | 0.00 | 0.00 | 91 | 1019.2 |
| 20260901082635 | 65 | 120 | 1.0 | 1.0 | 0.00 | 0.00 | 0.00 | 92 | 1019.4 |
| 20260901081616 | 65 | 129 | 1.0 | 2.0 | 0.00 | 0.00 | 0.00 | 92 | 1019.6 |
| 20260901080616 | 65 | 0.0 | 1.0 | 0.00 | 0.00 | 0.00 | 92 | 1019.6 | |
| 20260901075616 | 64 | 103 | 0.0 | 1.0 | 0.00 | 0.00 | 0.00 | 92 | 1019.4 |
| 20260901074616 | 65 | 109 | 1.0 | 2.0 | 0.00 | 0.00 | 0.00 | 92 | 1019.3 |
| 20260901073636 | 65 | 105 | 1.0 | 2.0 | 0.00 | 0.00 | 0.00 | 93 | 1019.2 |
| 20260901072615 | 65 | 0.0 | 0.0 | 0.00 | 0.00 | 0.00 | 93 | 1019.2 | |
| 20260901071635 | 65 | 90 | 0.0 | 1.0 | 0.00 | 0.00 | 0.00 | 93 | 1019.1 |
| 20260901070656 | 65 | 0.0 | 1.0 | 0.00 | 0.00 | 0.00 | 94 | 1018.8 | |
| 20260901065615 | 65 | 0.0 | 0.0 | 0.00 | 0.00 | 0.00 | 94 | 1018.9 | |
| 20260901064636 | 65 | 116 | 1.0 | 2.0 | 0.00 | 0.00 | 0.00 | 94 | 1018.4 |
| 20260901063615 | 65 | 109 | 1.0 | 2.0 | 0.00 | 0.00 | 0.00 | 95 | 1018.4 |
| 20260901062637 | 65 | 117 | 1.0 | 2.0 | 0.00 | 0.00 | 0.00 | 95 | 1018.4 |
| 20260901061616 | 65 | 107 | 0.0 | 1.0 | 0.00 | 0.00 | 0.00 | 95 | 1018.2 |
| 20260901060616 | 65 | 111 | 1.0 | 1.0 | 0.00 | 0.00 | 0.00 | 94 | 1018.0 |